Home   Weather   Warren   Past weeks

Flag for USA Past Weather in Warren, Michigan, USA — Yesterday and Last 2 Weeks

Now
35 °F

Clear.


Feels Like: 32 °F
Forecast: 34 / 48 °F
Wind: 3 mph from North

Location: Detroit City Airport

Current Time: Feb 20, 2017 at 3:59:01 am

Latest Report: Feb 20, 2017 at 2:53 am


Visibility: 10 mi

Pressure: 30.23 "Hg

Humidity: 82%

Dew Point: 30 °F

Location of WarrenLocation

Past Weather in Warren — Graph

°F

Warren Temperature Yesterday

Maximum temperature yesterday: 65 °F (at 3:53 pm)
Minimum temperature yesterday: 39 °F (at 11:53 pm)
Average temperature yesterday: 50 °F

High & Low Weather Summary for the Past Weeks

 TemperatureHumidityPressure
High67 °F (Feb 18, 2:53 pm)100% (Feb 7, 4:53 am)30.96 "Hg (Feb 7, 4:53 am)
Low16 °F (Feb 9, 11:53 pm)24% (Feb 19, 3:53 pm)28.08 "Hg (Feb 10, 6:53 am)
Average35 °F69%29.85 "Hg
* Reported Feb 5 1:53 am — Feb 20 1:53 am, Warren, Weather by CustomWeather, © 2017

Note: Actual official high and low records may vary slightly from our data, if they occured in-between our weather recording intervals... More about our weather records

Advertising

Warren Weather History for the Previous 24 Hours

Scroll right to see more
 ConditionsComfort  
Time TempWeatherWind HumidityBarometerVisibility
1:53 am
Mon, Feb 20
38 °FClear.3 mph76%30.21 "Hg10 mi
12:53 am38 °FClear.3 mph76%30.20 "Hg10 mi
11:53 pm
Sun, Feb 19
39 °FClear.5 mph73%30.19 "Hg10 mi
10:53 pm40 °FClear.5 mph73%30.18 "Hg10 mi
9:53 pm41 °FClear.5 mph70%30.17 "Hg10 mi
8:53 pm42 °FClear.6 mph68%30.14 "Hg10 mi
7:53 pm52 °FClear.5 mph45%30.11 "Hg10 mi
6:53 pm56 °FClear.6 mph36%30.09 "Hg10 mi
5:53 pm58 °FSunny.8 mph33%30.06 "Hg10 mi
4:53 pm63 °FSunny.9 mph24%30.03 "Hg10 mi
3:53 pm65 °FSunny.9 mph24%30.01 "Hg10 mi
2:53 pm64 °FSunny.12 mph26%29.99 "Hg10 mi
1:53 pm63 °FSunny.12 mph28%29.98 "Hg10 mi
12:53 pm62 °FSunny.10 mph31%29.98 "Hg10 mi
11:53 am59 °FSunny.7 mph36%30.00 "Hg10 mi
10:53 am55 °FSunny.7 mph45%29.99 "Hg10 mi
9:53 am50 °FSunny.6 mph59%29.97 "Hg10 mi
8:53 am45 °FSunny.5 mph71%29.96 "Hg10 mi
7:53 am43 °FSunny.5 mph76%29.93 "Hg10 mi
6:53 am43 °FClear.5 mph76%29.90 "Hg10 mi
5:53 am43 °FClear.5 mph76%29.88 "Hg10 mi
4:53 am43 °FClear.5 mph76%29.86 "Hg10 mi
3:53 am43 °FClear.5 mph76%29.84 "Hg10 mi
Weather by CustomWeather, © 2017

See weather overviewHow to use our weather pages